Home   Weather   Sidney   Past weeks

Flag for USA Past Weather in Sidney, Montana, USA — Yesterday and Last 2 Weeks

Now
10 °F

Clear.


Feels Like: -8 °F
Forecast: 9 / 34 °F
Wind: 18 mph from Southwest

Location: Sidney-Richland

Current Time: Jan 17, 2017 at 2:12:00 am

Latest Report: Jan 17, 2017 at 12:56 am


Visibility: 10 mi

Pressure: 30.09 "Hg (27.85 "Hg at 591m altitude)

Humidity: 80%

Dew Point: 5 °F

Location of SidneyLocation

Past Weather in Sidney — Graph

°F

Sidney Temperature Yesterday

Maximum temperature yesterday: 19 °F (at 1:56 pm)
Minimum temperature yesterday: 1 °F (at 6:56 am)
Average temperature yesterday: 9 °F

High & Low Weather Summary for the Past Weeks

 TemperatureHumidityPressure
High19 °F (Jan 16, 1:56 pm)87% (Jan 2, 9:56 am)30.79 "Hg (Jan 2, 9:56 am)
Low-26 °F (Jan 7, 6:56 am)56% (Jan 12, 12:56 pm)29.59 "Hg (Jan 9, 6:30 pm)
Average-1 °F77%30.28 "Hg
* Reported Jan 2 12:56 am — Jan 17 12:56 am, Sidney, Weather by CustomWeather, © 2017

Note: Actual official high and low records may vary slightly from our data, if they occured in-between our weather recording intervals... More about our weather records

Advertising

Sidney Weather History for the Previous 24 Hours

Scroll right to see more
 ConditionsComfort  
Time TempWeatherWind HumidityBarometerVisibility
12:56 am
Tue, Jan 17
10 °FClear.18 mph80%30.09 "Hg10 mi
11:56 pm
Mon, Jan 16
9 °FClear.6 mph84%30.14 "Hg10 mi
10:56 pm10 °FClear.9 mph80%30.16 "Hg10 mi
9:56 pm11 °FClear.7 mph84%30.19 "Hg10 mi
8:56 pm11 °FClear.13 mph81%30.22 "Hg10 mi
7:56 pm10 °FClear.7 mph84%30.23 "Hg10 mi
6:56 pm10 °FClear.8 mph84%30.25 "Hg10 mi
5:56 pm13 °FClear.8 mph84%30.24 "Hg10 mi
4:56 pm14 °FClear.10 mph80%30.25 "Hg10 mi
3:56 pm16 °FSunny.10 mph80%30.26 "Hg10 mi
2:56 pm18 °FSunny.7 mph77%30.26 "Hg10 mi
1:56 pm19 °FSunny.8 mph74%30.24 "Hg10 mi
12:56 pm17 °FSunny.8 mph76%30.27 "Hg10 mi
11:56 am14 °FSunny.8 mph77%30.28 "Hg10 mi
10:56 am11 °FSunny.8 mph77%30.30 "Hg10 mi
9:56 am7 °FSunny.8 mph79%30.32 "Hg10 mi
8:56 am4 °FSunny.5 mph80%30.31 "Hg10 mi
7:56 am3 °FSunny.8 mph84%30.30 "Hg10 mi
6:56 am1 °FClear.5 mph87%30.28 "Hg10 mi
5:56 am3 °FClear.8 mph84%30.26 "Hg10 mi
4:56 am3 °FClear.5 mph84%30.25 "Hg10 mi
3:56 am3 °FClear.5 mph84%30.24 "Hg10 mi
2:56 am5 °FClear.10 mph80%30.22 "Hg10 mi
Weather by CustomWeather, © 2017

See weather overviewHow to use our weather pages